Regional Weather Roundup
Issued by NWS Midland/Odessa, TX

Skip options and go directly to product.
Home | Oldest Version | Next Version | Current Version | All | Text Only | Save Text | Print | Product List | Glossary On

Skip product version selection by date and time.   
082
ASUS44 KMAF 281001
RWRMAF
MIDLAND AREA WEATHER ROUNDUP
NATIONAL WEATHER SERVICE MIDLAND TX
500 AM CDT SAT MAR 28 2015

...IN SOUTHWEST TEXAS AND SOUTHEAST NEW MEXICO...

CITY           SKY/WX    TMP DP  RH WIND       PRES   REMARKS
ALPINE         CLEAR     50  28  42 SW6       30.24S
ANDREWS        FAIR      55  34  46 SW15      30.07F
ARTESIA        CLEAR     52  27  37 VRB3      30.08R
BIG SPRING     CLEAR     59  32  36 S16       30.08F
CARLSBAD       CLEAR     45  34  65 CALM      30.06S
DRYDEN           N/A     50  41  71 N6        30.09S
FORT STOCKTON  CLEAR     56  31  38 SW16      30.08F
GUAD PASS      CLEAR     57  18  21 SW18      30.20S
HOBBS          CLEAR     45  32  61 SW7       30.08F
MARFA          CLEAR     37  30  75 N7        30.22F WCI  32
MIDLAND AIRPK  CLEAR     58  35  42 S10       30.07F
MIDLAND INTL   CLEAR     55  36  48 S8        30.06F
ODESSA         CLEAR     52  35  52 S7        30.07F
PECOS          CLEAR     44  36  72 SE5       30.06S
PRESIDIO       FAIR      58  32  37 N15       30.13S
SEMINOLE       CLEAR     46  35  65 SW7       30.07S
SNYDER         CLEAR     52  34  50 S8        30.06F
WINK           CLEAR     47  37  68 SE8       30.06S
$$
...OTHER STATIONS IN TEXAS...

CITY           SKY/WX    TMP DP  RH WIND       PRES   REMARKS
ABILENE        CLEAR     50  40  68 SE9       30.07F
AMARILLO       CLEAR     43  34  70 S6        30.06F WCI  39
AUSTIN         CLEAR     44  42  93 CALM      30.12S
BROWNSVILLE    CLEAR     53  51  93 S5        30.16F
CORPUS CHRISTI CLEAR     55  50  83 SW6       30.14S
DALLAS FTW     PTCLDY    48  39  71 SE6       30.08F
DEL RIO        CLEAR     54  40  59 E9        30.10F
EL PASO        CLEAR     52  24  33 E9        30.12S
HOUSTON INT    CLEAR     53  44  71 CALM      30.13F
LUBBOCK        CLEAR     44  36  73 SE6       30.05F
SAN ANGELO     CLEAR     59  35  40 S14       30.07S
SAN ANTONIO    CLEAR     51  41  68 W5        30.13S
WACO           CLEAR     48  40  73 S3        30.12F
WICHITA FALLS  NOT AVBL
$$
...OTHER LOCATIONS IN NEW MEXICO...

CITY           SKY/WX    TMP DP  RH WIND       PRES   REMARKS
ALAMAGORDO     PTCLDY    50  18  27 S8        30.13S
ALBUQUERQUE    CLEAR     46  19  34 E7        30.19S
CANNON AFB     NOT AVBL
CLOVIS         CLEAR     39  30  70 N3        30.05F
HOLLOMAN AFB   NOT AVBL
ROSWELL        CLEAR     45  29  53 SW3       30.06F
RUIDOSO        CLEAR     50  14  23 W12       30.25F
SANTA FE       CLEAR     43  19  38 N5        30.21S
TRUTH OR CONSE CLEAR     58  12  16 NW13      30.17F
TUCUMCARI      CLEAR     45  30  55 NW13      30.06R WCI  39
$$

USA.gov is the U.S. government's official web portal to all federal, state and local government web resources and services.